Peoria, IL

9:08 PM CDT on August 30, 2016 (GMT -0500)
Greater Peoria Regional

Weather History for KPIA - June, 2014

Change the Weather History Date:

Thursday, June 19, 2014

  Actual Average Record
Temperature  
Mean Temperature 81 °F 73 °F  
Max Temperature 91 °F 83 °F 100 °F (1953)
Min Temperature 71 °F 63 °F 49 °F (1914)
Degree Days  
Heating Degree Days 0 0  
Month to date heating degree days 0 17  
Since 1 June heating degree days 0 17  
Since 1 July heating degree days 6586 5830  
Cooling Degree Days 16 8  
Month to date cooling degree days 151 117  
Year to date cooling degree days 309 198  
Since 1 June cooling degree days 151 117  
Growing Degree Days 32 (Base 50)    
Moisture  
Dew Point 71 °F    
Average Humidity 73    
Maximum Humidity 90    
Minimum Humidity 56    
Precipitation  
Precipitation 0.92 in 0.12 in 2.31 in (1964)
Month to date precipitation 6.34 2.23  
Year to date precipitation 18.32 16.56  
Snow  
Snow 0.00 in 0.00 in 0.00 in ()
Month to date snowfall 0.0 0.0  
Since 1 June snowfall 0.0 0.0  
Since 1 July snowfall 57.6 24.6  
Snow Depth 0.00 in    
Sea Level Pressure  
Sea Level Pressure 30.00 in    
Wind  
Wind Speed 7 mph (SE)    
Max Wind Speed 23 mph    
Max Gust Speed 27 mph    
Visibility 8 miles    
Events Rain , Thunderstorm    
T = Trace of Precipitation, MM = Missing Value Source: NWS Daily Summary

Daily Weather History Graph

Daily Weather History Graph

Search for Another Location

Airport or City:

Trip Planner

Search our weather history database for the weather conditions in past years. The results will help you decide how hot, cold, wet, or windy it might be!

Date:

Astronomy

Jun. 19, 2014 Rise Set
Actual Time 5:27 AM CDT 8:32 PM CDT
Civil Twilight 4:54 AM CDT 9:06 PM CDT
Nautical Twilight 4:11 AM CDT 9:48 PM CDT
Astronomical Twilight 3:21 AM CDT 10:39 PM CDT
Moon 12:34 AM CDT (6/19) 1:00 PM CDT (6/19)
Length of Visible Light 16h 12m
Length of Day
15h 05m
Waning Gibbous, 51% of the Moon is Illuminated
Jun 19
Waning Gibbous
Jun 19
Last Quarter
Jun 27
New
Jul 5
First Quarter
Jul 12
Full

Hourly Weather History & Observations

Time (CDT) Temp. Heat Index Dew Point Humidity Pressure Visibility Wind Dir Wind Speed Gust Speed Precip Events Conditions
12:54 AM 81.0 °F 84.9 °F 71.1 °F 72% 29.95 in 10.0 mi SSW 9.2 mph - N/A   Clear
1:54 AM 79.0 °F - 71.1 °F 77% 29.94 in 10.0 mi SSW 8.1 mph - N/A   Clear
2:54 AM 79.0 °F - 70.0 °F 74% 29.96 in 10.0 mi Variable 3.5 mph - N/A   Mostly Cloudy
3:54 AM 77.0 °F - 70.0 °F 79% 29.96 in 10.0 mi SSE 3.5 mph - N/A   Clear
4:54 AM 75.2 °F - 71.6 °F 89% 29.99 in 10.0 mi East 3.5 mph - N/A   Clear
5:54 AM 73.9 °F - 70.0 °F 87% 29.99 in 9.0 mi NE 6.9 mph - N/A   Mostly Cloudy
6:54 AM 72.0 °F - 66.0 °F 81% 30.02 in 10.0 mi NE 11.5 mph - N/A   Clear
7:54 AM 72.0 °F - 64.9 °F 78% 30.04 in 10.0 mi East 11.5 mph - N/A   Mostly Cloudy
8:54 AM 73.9 °F - 66.0 °F 76% 30.03 in 10.0 mi East 11.5 mph - N/A   Scattered Clouds
10:54 AM 81.0 °F 84.9 °F 71.1 °F 72% 30.03 in 10.0 mi East 4.6 mph - N/A   Mostly Cloudy
11:54 AM 84.9 °F 90.7 °F 72.0 °F 65% 30.03 in 10.0 mi Calm Calm - N/A   Scattered Clouds
12:54 PM 88.0 °F 95.6 °F 73.0 °F 61% 30.00 in 10.0 mi SSW 8.1 mph - N/A   Partly Cloudy
1:54 PM 91.0 °F 99.3 °F 73.0 °F 55% 29.99 in 10.0 mi South 5.8 mph - N/A   Partly Cloudy
2:54 PM 89.1 °F 96.0 °F 72.0 °F 57% 29.97 in 10.0 mi SSE 8.1 mph - 0.00 in   Scattered Clouds
3:17 PM 84.0 °F 90.2 °F 73.0 °F 69% 29.99 in 2.5 mi ESE 6.9 mph - 0.04 in Rain Light Rain
3:24 PM 82.9 °F 88.0 °F 72.0 °F 69% 29.98 in 10.0 mi East 5.8 mph - 0.04 in   Overcast
3:54 PM 84.9 °F 92.1 °F 73.9 °F 69% 29.94 in 10.0 mi NNE 8.1 mph - 0.05 in   Mostly Cloudy
4:54 PM 88.0 °F 94.7 °F 72.0 °F 59% 29.94 in 10.0 mi South 10.4 mph - N/A   Scattered Clouds
5:54 PM 87.1 °F 93.6 °F 72.0 °F 61% 29.94 in 10.0 mi SSW 8.1 mph - N/A   Clear
6:54 PM 84.9 °F 90.7 °F 72.0 °F 65% 29.95 in 10.0 mi SSW 4.6 mph - N/A   Clear
7:12 PM 84.0 °F 89.6 °F 72.0 °F 67% 29.98 in 10.0 mi South 4.6 mph - N/A Thunderstorm Clear
7:27 PM 84.0 °F 89.6 °F 72.0 °F 67% 29.99 in 10.0 mi SSW 5.8 mph - N/A   Clear
7:54 PM 81.0 °F 84.4 °F 70.0 °F 69% 29.98 in 10.0 mi NNW 6.9 mph - N/A   Scattered Clouds
8:29 PM 78.1 °F - 70.0 °F 76% 29.99 in 6.0 mi North 8.1 mph - 0.00 in Rain , Thunderstorm Light Thunderstorms and Rain
8:54 PM 75.9 °F - 70.0 °F 82% 30.01 in 6.0 mi South 13.8 mph 20.7 mph 0.01 in Rain , Thunderstorm Light Thunderstorms and Rain
9:02 PM 75.9 °F - 70.0 °F 82% 30.03 in 1.8 mi Variable 6.9 mph 27.6 mph 0.06 in Rain , Thunderstorm Heavy Thunderstorms and Rain
9:10 PM 73.9 °F - 70.0 °F 87% 30.03 in 1.0 mi ESE 4.6 mph 17.3 mph 0.34 in Rain , Thunderstorm Heavy Thunderstorms and Rain
9:17 PM 73.9 °F - 70.0 °F 87% 30.03 in 2.5 mi Calm Calm - 0.39 in Rain , Thunderstorm Thunderstorms and Rain
9:37 PM 73.9 °F - 70.0 °F 87% 30.02 in 4.0 mi SE 3.5 mph - 0.50 in Rain , Thunderstorm Light Rain
9:49 PM 73.4 °F - 71.6 °F 94% 30.02 in 4.0 mi East 5.8 mph - 0.54 in Rain Rain
9:54 PM 73.9 °F - 71.1 °F 91% 30.02 in 6.0 mi ENE 4.6 mph - 0.55 in Rain Light Rain
10:13 PM 73.0 °F - 71.1 °F 93% 30.03 in 8.0 mi East 8.1 mph - 0.02 in Rain Light Rain
10:36 PM 73.9 °F - 71.1 °F 91% 30.07 in 2.5 mi WSW 10.4 mph - 0.05 in Rain Heavy Rain
10:39 PM 73.9 °F - 71.1 °F 91% 30.06 in 1.2 mi SW 5.8 mph - 0.10 in Rain Heavy Rain
10:47 PM 73.9 °F - 71.1 °F 91% 30.06 in 1.5 mi South 6.9 mph - 0.24 in Rain Rain
10:51 PM 73.4 °F - 69.8 °F 88% 30.06 in 3.0 mi South 9.2 mph - 0.26 in Rain Heavy Rain
10:54 PM 73.0 °F - 69.1 °F 87% 30.04 in 3.0 mi South 9.2 mph - 0.28 in Rain Rain
11:54 PM 71.1 °F - 68.0 °F 90% 30.01 in 10.0 mi ESE 4.6 mph - 0.02 in Rain Light Rain